Regional Weather Roundup
Issued by NWS

Home | Current Version | Previous Version | Text Only | Print | Product List | Glossary Off
Versions: 1 2 3 4 5 6 7 8 9 10 11 12 13 14 15 16 17 18 19 20 21 22 23 24 25 26 27 28 29 30 31 32 33 34 35 36 37 38 39 40 41 42 43 44 45 46 47 48 49 50

000
ASUS43 KDTX 292101
RWRMI
MICHIGAN HOURLY REGIONAL WEATHER ROUNDUP
NATIONAL WEATHER SERVICE DETROIT/PONTIAC MI
500 PM EDT WED JUL 29 2015

NOTE: "FAIR" INDICATES FEW OR NO CLOUDS BELOW 12,000 FEET WITH NO
SIGNIFICANT WEATHER AND/OR OBSTRUCTION TO VISIBILITY.

MIZ047>049-052>055-059>063-066>070-074>076-081>083-292200-
SOUTHEAST LOWER MICHIGAN

CITY           SKY/WX    TMP DP  RH WIND       PRES   REMARKS
ADRIAN         PTSUNNY   79  74  84 S10       29.92S
ALMA           MOSUNNY   84  64  50 W15G26    29.88S
ANN ARBOR      PTSUNNY   80  75  84 SW9       29.90F
BAD AXE        CLOUDY    80  76  87 S12G20    29.86F
CARO           PTSUNNY   80  76  88 S8        29.86F
DETROIT CITY   TSTM      76  73  91 SW8       29.91R FOG
DETROIT        LGT RAIN  78  74  87 SW8       29.91R
FLINT          PTSUNNY   88  74  63 W12G22    29.86F HX  96
GROSSE ILE     LGT RAIN  79  75  89 W7        29.90R
HILLSDALE      MOSUNNY   85  74  70 W10G21    29.93S HX  92
HOWELL         MOSUNNY   89  69  52 W13G22    29.88F HX  93

CITY           SKY/WX    TMP DP  RH WIND       PRES   REMARKS
JACKSON        MOSUNNY   85  72  65 W17G23    29.91S HX  91
LAMBERTVILLE   LGT RAIN  77  72  84 W10G18    29.94R
LANSING        PTSUNNY   86  70  58 W16       29.90R HX  90
LAPEER         FAIR      79  76  92 SE3       29.87F
MASON          CLOUDY    83  70  64 W13G20    29.90S
MONROE         LGT RAIN  76  74  93 W9G16     29.90R
MT. CLEMENS    TSTM      76  73  92 SW10G30   29.90R VSB 1
PONTIAC        PTSUNNY   79  75  87 S5        29.89F
PORT HOPE        N/A     78  76  93 VRB3      29.83S
PORT HURON     LGT RAIN  82  72  69 CALM      29.87F
TRI CITIES     MOSUNNY   88  73  61 W20       29.85S HX  95
MIDLAND        FAIR      88  65  47 W12G23    29.84R HX  90
TROY           CLOUDY    80  76  90 MISG      29.92F
SAGINAW HB     PTSUNNY   86  73  66 SW14      29.84S HX  93
$$
MIZ043>046-050>051-056>058-064>065-071>073-077>080-292200-
SOUTHWEST LOWER MICHIGAN

CITY           SKY/WX    TMP DP  RH WIND       PRES   REMARKS
BATTLE CREEK   PTSUNNY   86  65  49 NW18G26   29.94R
BENTON HARBOR  SUNNY     83  64  52 W10       29.95F
BIG RAPIDS     SUNNY     84  46  26 W20       29.89S
COLDWATER      MOSUNNY   85  71  62 W13       29.93R
FREMONT        FAIR      82  47  28 W14G23    29.91S
HOLLAND        SUNNY     81  62  52 W10G22    29.94F
GRAND RAPIDS   MOSUNNY   85  49  28 W18G28    29.92S
IONIA          FAIR      85  60  42 W15       29.89S
KALAMAZOO      MOSUNNY   84  61  45 NW13G25   29.94R
LUDINGTON      SUNNY     81  58  44 SW14G21   29.89F
MARSHALL       PTSUNNY   85  73  66 W13       29.91S HX  91
MOUNT PLEASANT MOSUNNY   89  54  30 W14G21    29.86S
MUSKEGON       MOSUNNY   84  56  38 W12G18    29.92F
SOUTH HAVEN    SUNNY     80  64  57 W9        29.95F
$$
MIZ016>042-292200-
NORTHERN LOWER MICHIGAN

CITY           SKY/WX    TMP DP  RH WIND       PRES   REMARKS
ALPENA         MOSUNNY   90  65  43 W16G24    29.78S HX  92
BEAVER ISLAND  SUNNY     78  57  47 SW17G29   29.79S
BELLAIRE       SUNNY     84  49  28 SW14G22   29.82S
CADILLAC       MOSUNNY   83  52  33 SW17G25   29.87F
CHARLEVOIX     SUNNY     83  51  32 SW17G31   29.84S
FRANKFORT      SUNNY     80  59  49 SW12G22   29.85S
GAYLORD        SUNNY     84  47  27 W16G23    29.84S
GRAYLING       SUNNY     87  50  28 SW9G18    29.84F
HARBOR SPRINGS SUNNY     81  58  44 W9G26     29.81S
HOUGHTON LAKE  SUNNY     85  52  32 W15G22    29.86F
MANISTEE       SUNNY     82  50  32 SW14G24   29.87S
OSCODA         MOSUNNY   84  75  74 S8        29.80F HX  92
PELLSTON       SUNNY     83  50  31 SW22G32   29.80F
ROGERS CITY    SUNNY     89  54  30 W12G22    29.78F
TRAVERSE CITY  MOSUNNY   86  49  27 SW15G28   29.81F
$$
MIZ007>008-015-292200-
EASTERN UPPER MICHIGAN

CITY           SKY/WX    TMP DP  RH WIND       PRES   REMARKS
KINROSS        SUNNY     81  52  36 SW13G28   29.76S
MACKINAC ISLAN SUNNY     79  53  40 SW18G32   29.78S
MUNISING         N/A     72  59  63 NE7       29.76S
$$
MIZ004>006-011>014-085-292200-
CENTRAL UPPER MICHIGAN

CITY           SKY/WX    TMP DP  RH WIND       PRES   REMARKS
ESCANABA       PTSUNNY   84  54  34 W15G26    29.74F
MENOMINEE      SUNNY     84  52  32 W8G25     29.78F
SAWYER-GWINN   PTSUNNY   79  52  38 W20       29.77S
$$
MIZ001>003-009>011-084-292200-
WESTERN UPPER MICHIGAN

CITY           SKY/WX    TMP DP  RH WIND       PRES   REMARKS
IRON MOUNTAIN  PTSUNNY   82  53  36 W18G33    29.79S
HOUGHTON       CLOUDY    71  54  54 W26G41    29.75R
COPPER HARBOR    N/A     74  54  49 W14G33    29.71S
IRONWOOD       CLOUDY    70  57  64 SW14      29.79S
$$

ABBREVIATIONS USED IN REMARKS
   TC - TEMPERATURE IN CELSIUS
  WCI - WIND CHILL INDEX
   HX - HEAT INDEX
  VSB - VISIBILITY




USA.gov is the U.S. government's official web portal to all federal, state and local government web resources and services.